sat.trackr.live / text

‹ back to catalog

STARLINK-31938

NORAD 59865 · 2024-098H

PAYLOAD ACTIVE UNKNOWN

§ Identity

Operator
Country
US
Launch date
2024-05-24
Launch site
AFETR
Launch vehicle
Mass (kg)
RCS (m²)

Purposes: comms

External: N2YO · Heavens-Above · Gunter

§ Orbital elements

Epoch: 2026-09-21T08:28:57.021600Z

Period
94.27 min
Inclination
43.0033°
Eccentricity
0.0000994
Mean motion
15.27576383 rev/d
Perigee alt
482.4 km
Apogee alt
483.7 km
Semi-major
6,861.2 km
B*
-7.6032e-6
RAAN
252.7050°
Arg perigee
268.0789°
Mean anomaly
91.9949°
Rev number
13,177

§ Raw data

STARLINK-319381 59865U 24098H   26264.35343775 -.00000471  00000+0 -76032-5 0  99992 59865  43.0033 252.7050 0000994 268.0789  91.9949 15.27576383131778

JSON: /api/v1/satellites/59865 · /tle

For live sub-satellite position, see the globe view (requires WebGL).

§ Visibility from observer

Set your observer location to see the next 7 days of passes ≥ 10°. The values pass through the URL so the page stays shareable.

No JS? Fill the form by hand. The geolocation button needs JavaScript.